Weather in Nikol'skoe

Russia / Vologda Oblast     59°29′26″N   42°31′27″E
temp.,
°C
wind,
m/s
gust,
m/s
humid.,
%
clouds,
%
prec.,
mm/h
press.,
hPa
HPBL,
m
14 april, wed
wed1400:00+9s31385100 0.0 1023274
03:00+7s31087100 0.0 1022182
06:00+9s41379100 0.0 1021274
09:00+13ssw4156830 0.0 1021502
12:00+17s513587 0.0 1019839
15:00+18ssw5115895 0.0 10181102
18:00+15s51368100 0.0 1017554
21:00+11ssw41279100 0.0 1018317
15 april, thu
thu1500:00+10w2490100 0.1 1018112
03:00+7n4991100 0.1 1020466
06:00+5nne4991100 0.2 1022481
09:00+4nne4990100 1.8 1024590
12:00+7ne4774100 0.2 10251029
15:00+9nne5653100 0.2 10251503
18:00+7ne495791 0.0 1027804
21:00+3ne41166100 0.0 1029446
16 april, fri
fri1600:00+2ne3117542 0.0 1030354
03:000ne310835 0.0 1031289
06:000ne39825 0.0 1032297
09:00+5ene36510 0.0 1032771
12:00+9ene35390 0.0 10321167
15:00+10ne35370 0.0 10311316
18:00+8ne35495 0.0 1031223
21:00+3ne25685 0.0 103282
17 april, sat
sat1700:00+2ne23710 0.0 103344
03:000ne22763 0.0 103422
06:00+1ne23760 0.0 103483
09:00+7nne24580 0.0 1034589
12:00+10nne24443 0.0 10331350
15:00+11nne34405 0.0 10321642
18:00+10nne25525 0.0 1032164
21:00+5nne22705 0.0 103211
18 april, sun
sun1800:00+3n22785 0.0 103314
03:00+2n22855 0.0 103317
06:00+2nne25873 0.0 1034128
09:00+8nne35583 0.0 1033685
12:00+11nne34465 0.0 10331477
15:00+12nne344382 0.0 10321936
18:00+9ene36616 0.0 1033694
21:00+4e27805 0.0 1035220